• Join FlightAware (Why Join?)
  • Login
  • US Flag 
03:33PM EDT


 

Airport Tracker/Info


-or-


 

Live Flight TrackerFlight Track Log ✈ N929SR ✈ 18-Jul-2013 ✈ KHKS - KSYR

Flight Track Log - Related Links

Times and Time Zones

All times are in EDT time to prevent confusion due to time zone crossing. See the N929SR flight status page for this flight to view local times or setup timezone preferences in your user account.

Time Position Orientation Groundspeed Altitude Reporting Facility
EDT Latitude Longitude Course Direction KTS MPH feet Rate Location/Type
03:09PM 32.2375 -90.1853 87° East 245 282 5,400  Level Memphis Center
03:10PM 32.2061 -90.1142 118° Southeast 270 311 8,300 2,580 Climbing Memphis Center
03:11PM 32.2183 -90.0183 81° East 275 316 10,600 2,160 Climbing Memphis Center
03:13PM 32.2781 -89.7972 72° East 355 409 14,800 2,220 Climbing Memphis Center
03:14PM 32.3541 -89.4073 87° East  Level FlightAware Approximate
03:14PM 32.3339 -89.6911 58° Northeast 355 409 17,300  Level Memphis Center
03:15PM 32.3856 -89.5872 59° Northeast 362 417 19,600 2,400 Climbing Memphis Center
03:16PM 32.4372 -89.4833 59° Northeast 362 417 22,100 2,160 Climbing Memphis Center
03:17PM 32.4864 -89.3797 61° Northeast 362 417 24,000 1,200 Climbing Memphis Center
03:18PM 32.5397 -89.2756 59° Northeast 382 440 24,600 960 Climbing Memphis Center
03:19PM 32.5972 -89.1564 60° Northeast 398 458 26,000 1,620 Climbing Memphis Center
03:20PM 32.6586 -89.0347 59° Northeast 411 473 27,900 1,860 Climbing Memphis Center
03:21PM 32.7158 -88.9178 60° Northeast 416 479 29,800 1,860 Climbing Memphis Center
03:22PM 32.7792 -88.8056 56° Northeast 416 479 31,700 1,920 Climbing Memphis Center
03:23PM 32.8806 -88.7419 28° Northeast 396 456 33,700 1,380 Climbing Memphis Center
03:24PM 32.9861 -88.6806 26° Northeast 396 456 34,500 900 Climbing Memphis Center
03:25PM 33.0939 -88.6142 27° Northeast 416 479 35,600 1,320 Climbing Memphis Center
03:26PM 33.2036 -88.5472 27° Northeast 431 496 37,200 1,800 Climbing Memphis Center
03:27PM 33.3089 -88.4831 27° Northeast 431 496 39,200 1,800 Climbing Memphis Center
03:28PM 33.4061 -88.4236 27° Northeast 411 473 40,900 900 Climbing Memphis Center
03:29PM 33.5075 -88.3642 26° Northeast 399 459 41,000  Climbing Memphis Center
03:30PM 33.5914 -88.2550 47° Northeast 394 453 41,000  Level Memphis Center
03:31PM 33.6689 -88.1533 47° Northeast 399 459 41,000  Level Memphis Center
03:32PM 33.7422 -88.0539 48° Northeast 399 459 41,000  Level Memphis Center
03:33PM 33.8114 -87.9572 49° Northeast 408 470 41,000  Level Memphis Center
03:34PM 33.8867 -87.8550 48° Northeast 414 476 41,000  Level Memphis Center
03:35PM 33.9681 -87.7525 46° Northeast 408 470 41,000  Level Memphis Center
03:37PM 34.1397 -87.5147 49° Northeast 436 502 41,000  Level Atlanta Center
03:38PM 34.2158 -87.4050 50° Northeast 424 488 41,000  Level Atlanta Center
03:39PM 34.2958 -87.2975 48° Northeast 424 488 41,000  Level Atlanta Center
03:40PM 34.3736 -87.1947 47° Northeast 424 488 41,000  Level Atlanta Center
03:41PM 34.4450 -87.0992 48° Northeast 424 488 41,000  Level Atlanta Center
03:42PM 34.5225 -86.9961 48° Northeast 424 488 41,000  Level Atlanta Center
03:43PM 34.6003 -86.8928 48° Northeast 419 482 41,000  Level Atlanta Center
03:44PM 34.6756 -86.7894 48° Northeast 413 475 41,000  Level Atlanta Center
03:45PM 34.7553 -86.6808 48° Northeast 413 475 41,000  Level Atlanta Center
03:46PM 34.8306 -86.5717 50° Northeast 413 475 41,000  Level Atlanta Center
03:47PM 34.9100 -86.4653 48° Northeast 418 481 41,000  Level Atlanta Center
03:48PM 34.9850 -86.3583 49° Northeast 418 481 41,000  Level Atlanta Center
03:49PM 35.0619 -86.2514 49° Northeast 418 481 41,000  Level Atlanta Center
03:50PM 35.1453 -86.1394 48° Northeast 418 481 41,000  Level Atlanta Center
03:51PM 35.2117 -86.0394 51° Northeast 418 481 41,000  Level Atlanta Center
03:52PM 35.2886 -85.9267 50° Northeast 424 488 41,000  Level Atlanta Center
03:53PM 35.3781 -85.8117 46° Northeast 424 488 41,000  Level Atlanta Center
03:54PM 35.4228 -85.7436 51° Northeast 424 488 41,000  Level Atlanta Center
03:55PM 35.5014 -85.6331 49° Northeast 424 488 41,000  Level Atlanta Center
03:56PM 35.5778 -85.5247 49° Northeast 424 488 41,000  Level Atlanta Center
03:57PM 35.6397 -85.4008 58° Northeast 424 488 41,000  Level Atlanta Center
03:58PM 35.7017 -85.2789 58° Northeast 419 482 41,000  Level Atlanta Center
03:59PM 35.7653 -85.1572 57° Northeast 413 475 41,000  Level Atlanta Center
04:00PM 35.8119 -85.0656 58° Northeast 408 470 41,000  Level Atlanta Center
04:01PM 35.8842 -84.9178 59° Northeast 429 494 41,000  Level Atlanta Center
04:02PM 35.9497 -84.7956 56° Northeast 422 486 41,000  Level Atlanta Center
04:03PM 36.0128 -84.6728 58° Northeast 432 497 41,000  Level Atlanta Center
04:04PM 36.0719 -84.5525 59° Northeast 427 491 41,000  Level Atlanta Center
04:05PM 36.1244 -84.4244 63° Northeast 421 484 41,000  Level Atlanta Center
04:06PM 36.1703 -84.3225 61° Northeast 417 480 41,000  Level Indianapolis Center
04:07PM 36.2261 -84.1989 61° Northeast 413 475 41,000  Level Indianapolis Center
04:08PM 36.2778 -84.0731 63° Northeast 410 472 41,000  Level Indianapolis Center
04:09PM 36.3311 -83.9478 62° Northeast 410 472 41,000  Level Indianapolis Center
04:10PM 36.3925 -83.7956 63° Northeast 412 474 41,000  Level Indianapolis Center
04:11PM 36.4472 -83.6694 62° Northeast 415 478 41,000  Level Indianapolis Center
04:12PM 36.5008 -83.5428 62° Northeast 415 478 41,000  Level Indianapolis Center
04:13PM 36.5647 -83.4058 60° Northeast 417 480 41,000  Level Indianapolis Center
04:14PM 36.6217 -83.2822 60° Northeast 412 474 41,000  Level Indianapolis Center
04:15PM 36.6814 -83.1564 59° Northeast 419 482 41,000  Level Indianapolis Center
04:16PM 36.7575 -83.0469 49° Northeast 417 480 41,000  Level Indianapolis Center
04:17PM 36.8661 -82.9561 34° Northeast 428 493 41,000  Level Indianapolis Center
04:18PM 36.9742 -82.8911 26° Northeast 427 491 41,000  Level Indianapolis Center
04:19PM 37.0789 -82.8183 29° Northeast 435 501 41,000  Level Indianapolis Center
04:20PM 37.1850 -82.7492 27° Northeast 432 497 41,000  Level Indianapolis Center
04:21PM 37.3125 -82.6664 27° Northeast 438 504 41,000  Level Indianapolis Center
04:22PM 37.4225 -82.5950 27° Northeast 444 511 41,000  Level Indianapolis Center
04:23PM 37.5311 -82.5222 28° Northeast 442 509 41,000  Level Indianapolis Center
04:24PM 37.6403 -82.4489 28° Northeast 442 509 41,000  Level Indianapolis Center
04:25PM 37.7497 -82.3761 28° Northeast 442 509 41,000  Level Indianapolis Center
04:26PM 37.8786 -82.2911 27° Northeast 445 512 41,000  Level Indianapolis Center
04:27PM 37.9892 -82.2186 27° Northeast 446 513 41,000  Level Indianapolis Center
04:28PM 38.0897 -82.1517 28° Northeast 449 517 41,000  Level Indianapolis Center
04:29PM 38.1992 -82.0778 28° Northeast 446 513 41,000  Level Indianapolis Center
04:30PM 38.3311 -81.9878 28° Northeast 448 516 41,000  Level Indianapolis Center
04:31PM 38.4228 -81.8808 42° Northeast 445 512 41,000  Level Indianapolis Center
04:32PM 38.5125 -81.7700 44° Northeast 447 514 41,000  Level Indianapolis Center
04:33PM 38.6086 -81.6517 44° Northeast 450 518 41,000  Level Indianapolis Center
04:34PM 38.6994 -81.5378 44° Northeast 455 524 41,000  Level Indianapolis Center
04:36PM 38.7906 -81.4256 44° Northeast 453 521 41,000  Level Indianapolis Center
04:37PM 38.8872 -81.3078 43° Northeast 466 536 41,000  Level Indianapolis Center
04:38PM 38.9753 -81.1972 44° Northeast 447 514 41,000  Level Indianapolis Center
04:39PM 39.0664 -81.0839 44° Northeast 454 522 41,000  Level Indianapolis Center
04:40PM 39.1742 -80.9483 44° Northeast 453 521 41,000  Level Indianapolis Center
04:41PM 39.2625 -80.8356 45° Northeast 449 517 41,000  Level Indianapolis Center
04:42PM 39.3519 -80.7214 45° Northeast 451 519 41,000  Level Indianapolis Center
04:43PM 39.4417 -80.6106 44° Northeast 448 516 41,000  Level Indianapolis Center
04:44PM 39.5269 -80.4986 45° Northeast 438 504 41,000  Level Indianapolis Center
04:45PM 39.6111 -80.3917 44° Northeast 425 489 41,000  Level Indianapolis Center
04:46PM 39.6853 -80.2997 44° Northeast 423 487 41,000  Level Cleveland Center
04:47PM 39.7725 -80.1886 44° Northeast 423 487 41,000  Level Cleveland Center
04:48PM 39.8575 -80.0772 45° Northeast 423 487 41,000  Level Cleveland Center
04:49PM 39.9425 -79.9658 45° Northeast 428 493 41,000 -60 Level Cleveland Center
04:50PM 40.0378 -79.8400 45° Northeast 438 504 40,900 -3,000 Descending Cleveland Center
04:51PM 40.1225 -79.7333 44° Northeast 433 498 35,000 -2,400 Descending Cleveland Center
04:52PM 40.2089 -79.6181 46° Northeast 433 498 36,100 -900 Climbing Cleveland Center
04:53PM 40.2956 -79.5025 45° Northeast 433 498 33,200 -1,560 Descending Cleveland Center
04:54PM 40.3819 -79.3892 45° Northeast 433 498 33,000 -120 Descending Cleveland Center
04:55PM 40.4536 -79.2789 49° Northeast 433 498 33,000  Level Cleveland Center
04:56PM 40.5292 -79.1381 55° Northeast 447 514 33,000  Level Cleveland Center
04:57PM 40.6167 -78.9856 53° Northeast 470 541 33,000  Level Cleveland Center
04:58PM 40.6817 -78.8692 54° Northeast 465 535 33,000  Level Cleveland Center
04:59PM 40.7375 -78.7089 65° Northeast 445 512 33,000  Level Cleveland Center
05:00PM 40.7869 -78.5483 68° East 445 512 33,000  Level Cleveland Center
05:02PM 40.9017 -78.1953 67° East 470 541 33,000  Level New York Center
05:03PM 40.9511 -78.0358 68° East 470 541 33,000 -60 Level New York Center
05:04PM 41.0003 -77.8758 68° East 470 541 32,900 -360 Descending New York Center
05:05PM 41.0442 -77.7347 68° East 470 541 32,300 -960 Descending New York Center
05:06PM 41.0744 -77.5697 76° East 459 528 31,100 -1,560 Descending New York Center
05:07PM 41.0989 -77.3961 79° East 459 528 29,300 -1,080 Descending New York Center
05:08PM 41.1450 -77.2406 68° East 464 534 29,000 -180 Descending New York Center
05:09PM 41.2092 -77.0950 60° Northeast 455 524 29,000  Level New York Center
05:10PM 41.2731 -76.9519 59° Northeast 455 524 29,000  Level New York Center
05:11PM 41.3408 -76.8061 58° Northeast 455 524 29,000  Level New York Center
05:12PM 41.4339 -76.6956 42° Northeast 455 524 29,000 -600 Level New York Center
05:13PM 41.5486 -76.6114 29° Northeast 446 513 27,900 -1,320 Descending New York Center
05:14PM 41.6633 -76.5242 30° Northeast 463 533 26,500 -1,500 Descending New York Center
05:15PM 41.7800 -76.4314 31° Northeast 463 533 24,900 -1,500 Descending New York Center
05:16PM 41.8925 -76.3461 29° Northeast 458 527 23,600 -1,260 Descending New York Center
05:17PM 41.9983 -76.2658 29° Northeast 453 521 22,400 -1,200 Descending New York Center
05:19PM 42.2525 -76.0728 29° Northeast 436 502 19,600 -1,260 Descending Boston Center
05:20PM 42.3631 -76.0061 24° Northeast 405 466 18,200 -1,260 Descending Boston Center
05:21PM 42.4569 -75.9411 27° Northeast 390 449 17,100 -600 Descending Boston Center
05:22PM 42.5419 -75.8839 26° Northeast 369 425 17,000 -60 Descending Boston Center
05:23PM 42.6081 -75.8367 28° Northeast 348 400 17,000 -420 Level Boston Center
05:25PM 42.7003 -75.8222 North 321 369 16,100 -1,320 Descending Boston Center
05:26PM 42.7881 -75.8864 332° Northwest 279 321 14,200 -2,040 Descending Boston Center
05:27PM 42.8756 -75.9536 331° Northwest 287 330 11,700 -1,620 Descending Boston Center
05:28PM 42.9322 -75.9397 10° North 286 329 11,000 -1,080 Descending Boston Center
05:29PM 42.9986 -75.8811 33° Northeast 254 292 9,800 -2,400 Descending Boston Center
05:30PM 43.0750 -75.8369 23° Northeast 268 308 6,200 -3,300 Descending Boston Center
05:31PM 43.1194 -75.8822 323° Northwest 215 247 3,200 -1,920 Descending Boston Center
05:32PM 43.1147 -75.9703 266° West 171 197 2,400 -1,080 Descending Boston Center
05:33PM 43.1100 -76.0525 266° West 143 165 1,000 -840 Descending Boston Center
05:34PM 43.1144 -76.1094 276° West 160 184 600 -300 Descending Boston Center
05:35PM 43.1106 -76.1719 265° West 160 184 400 -240 Descending Boston Center
05:41PM 43.1112 -76.1063 318° Northwest  Level Estimated
05:48PM 43.1112 -76.1063 318° Northwest  Level Estimated
05:49PM 43.1112 -76.1063 318° Northwest  Level Estimated